Location: Brienzwiler
(46.7508°N, 8.1014°E)
Time: 07:44:33
(UTC+00:00)

BREEZE M DEB (TANK) - Pass Details

Date: 05 July 2020
Orbit: 285 x 14546 km, 49.5° (Epoch: 05 August)

Event Time Altitude Azimuth Distance (km) Brightness Sun altitude
Rises 21:19:37 0° 289° (WNW) 2,546 7.1 -14.4°
Reaches altitude 10° 21:22:06 10° 278° (W) 1,272 5.2 -14.6°
Enters shadow 21:24:10 31° 213° (SSW) 537 2.5 -14.8°
